Time,TemperatureF,DewpointF,PressureIn,WindDirection,WindDirectionDegrees,WindSpeedMPH,WindSpeedGustMPH,Humidity,HourlyPrecipIn,Conditions,Clouds,dailyrainin,SoftwareType,DateUTC
2013-01-02 00:03:00,43.0,41.0,29.97,NW,314,0.0,0.0,93,0.01,,,0.00,,2013-01-02 05:03:00,
2013-01-02 00:12:00,43.0,41.0,29.97,NW,314,0.0,0.0,93,0.01,,,0.00,,2013-01-02 05:12:00,
2013-01-02 00:22:00,43.0,41.0,29.97,NW,314,0.0,0.0,93,0.01,,,0.00,,2013-01-02 05:22:00,
2013-01-02 00:33:00,43.0,41.0,29.97,NW,314,0.0,0.0,93,0.01,,,0.66,,2013-01-02 05:33:00,
2013-01-02 00:42:00,43.0,41.0,29.97,NW,314,0.0,0.0,93,0.01,,,0.66,,2013-01-02 05:42:00,
2013-01-02 00:52:00,43.0,41.0,29.96,NW,314,0.0,0.0,93,0.02,,,0.67,,2013-01-02 05:52:00,
2013-01-02 01:02:00,43.0,41.0,29.94,NW,314,0.0,0.0,93,0.01,,,0.67,,2013-01-02 06:02:00,
2013-01-02 01:12:00,43.0,41.0,29.94,NW,314,0.0,0.0,93,0.01,,,0.67,,2013-01-02 06:12:00,
2013-01-02 01:22:00,43.0,41.0,29.93,NW,314,0.0,0.0,93,0.01,,,0.67,,2013-01-02 06:22:00,
2013-01-02 01:32:00,44.0,42.0,29.92,NW,314,0.0,0.0,93,0.01,,,0.67,,2013-01-02 06:32:00,
2013-01-02 01:42:00,44.0,42.0,29.92,NW,314,0.0,0.0,93,0.01,,,0.67,,2013-01-02 06:42:00,
2013-01-02 01:52:00,44.0,42.0,29.94,NW,314,0.0,0.0,93,0.00,,,0.67,,2013-01-02 06:52:00,
2013-01-02 02:02:00,44.0,42.0,29.93,NW,314,0.0,0.0,93,0.00,,,0.67,,2013-01-02 07:02:00,
2013-01-02 02:12:00,44.0,42.0,29.93,NW,314,0.0,0.0,93,0.00,,,0.67,,2013-01-02 07:12:00,
2013-01-02 02:22:00,44.0,42.0,29.94,NW,314,0.0,0.0,93,0.00,,,0.67,,2013-01-02 07:22:00,
2013-01-02 02:32:00,44.0,42.0,29.95,NW,314,0.0,0.0,93,0.00,,,0.67,,2013-01-02 07:32:00,
2013-01-02 02:42:00,44.0,42.0,29.95,NW,314,0.0,0.0,93,0.00,,,0.67,,2013-01-02 07:42:00,
2013-01-02 02:52:00,44.0,42.0,29.96,NW,314,0.0,0.0,93,0.00,,,0.67,,2013-01-02 07:52:00,
2013-01-02 03:02:00,44.0,42.0,29.96,NW,314,0.0,0.0,93,0.00,,,0.67,,2013-01-02 08:02:00,
2013-01-02 03:12:00,44.0,42.0,29.96,NW,314,0.0,0.0,93,0.00,,,0.67,,2013-01-02 08:12:00,
2013-01-02 03:22:00,43.0,41.0,29.97,NW,314,0.0,0.0,93,0.00,,,0.67,,2013-01-02 08:22:00,
2013-01-02 03:32:00,43.0,41.0,29.97,NW,314,0.0,0.0,93,0.00,,,0.67,,2013-01-02 08:32:00,
2013-01-02 03:42:00,43.0,41.0,29.97,NW,314,0.0,0.0,93,0.00,,,0.67,,2013-01-02 08:42:00,
2013-01-02 03:52:00,42.0,40.0,29.97,NW,314,0.0,0.0,93,0.00,,,0.67,,2013-01-02 08:52:00,
2013-01-02 04:02:00,42.0,40.0,29.97,NW,314,0.0,0.0,93,0.00,,,0.67,,2013-01-02 09:02:00,
2013-01-02 04:12:00,42.0,40.0,29.97,NW,314,0.0,0.0,93,0.00,,,0.67,,2013-01-02 09:12:00,
2013-01-02 04:22:00,42.0,40.0,29.96,NW,314,0.0,0.0,92,0.00,,,0.67,,2013-01-02 09:22:00,
2013-01-02 04:32:00,41.0,39.0,29.97,NW,314,0.0,0.0,91,0.00,,,0.67,,2013-01-02 09:32:00,
2013-01-02 04:43:00,41.0,39.0,29.97,NW,314,0.0,0.0,91,0.00,,,0.67,,2013-01-02 09:43:00,
2013-01-02 04:52:00,41.0,39.0,29.97,NW,314,0.0,0.0,91,0.00,,,0.67,,2013-01-02 09:52:00,
2013-01-02 05:02:00,41.0,38.0,29.98,NW,314,0.0,0.0,90,0.00,,,0.67,,2013-01-02 10:02:00,
2013-01-02 05:12:00,41.0,38.0,29.98,NW,314,0.0,0.0,89,0.00,,,0.67,,2013-01-02 10:12:00,
2013-01-02 05:22:00,41.0,38.0,29.98,NW,314,0.0,0.0,89,0.00,,,0.67,,2013-01-02 10:22:00,
2013-01-02 05:32:00,41.0,38.0,29.98,NW,314,0.0,0.0,89,0.00,,,0.67,,2013-01-02 10:32:00,
2013-01-02 05:42:00,41.0,38.0,29.98,NW,314,0.0,0.0,89,0.00,,,0.67,,2013-01-02 10:42:00,
2013-01-02 05:52:00,41.0,38.0,29.96,NW,314,0.0,0.0,89,0.00,,,0.67,,2013-01-02 10:52:00,
2013-01-02 06:02:00,40.0,37.0,29.98,NW,314,0.0,0.0,89,0.00,,,0.67,,2013-01-02 11:02:00,
2013-01-02 06:12:00,40.0,37.0,29.98,NW,314,0.0,0.0,89,0.00,,,0.67,,2013-01-02 11:12:00,
2013-01-02 06:22:00,40.0,37.0,29.97,NW,314,0.0,0.0,89,0.00,,,0.67,,2013-01-02 11:22:00,
2013-01-02 06:33:00,40.0,37.0,29.97,NW,314,0.0,0.0,89,0.00,,,0.67,,2013-01-02 11:33:00,
2013-01-02 06:42:00,40.0,37.0,29.97,NW,314,0.0,0.0,89,0.00,,,0.67,,2013-01-02 11:42:00,
2013-01-02 06:52:00,40.0,37.0,29.97,NW,314,0.0,0.0,89,0.00,,,0.67,,2013-01-02 11:52:00,
2013-01-02 07:03:00,40.0,37.0,29.98,NW,314,0.0,0.0,90,0.00,,,0.65,,2013-01-02 12:03:00,
2013-01-02 07:12:00,40.0,37.0,29.98,NW,314,0.0,0.0,90,0.00,,,0.65,,2013-01-02 12:12:00,
2013-01-02 07:22:00,40.0,37.0,29.99,NW,314,0.0,0.0,89,0.00,,,0.64,,2013-01-02 12:22:00,
2013-01-02 07:33:00,39.0,36.0,30.00,NW,314,0.0,0.0,89,0.00,,,0.63,,2013-01-02 12:33:00,
2013-01-02 07:42:00,39.0,36.0,30.00,NW,314,0.0,0.0,89,0.00,,,0.63,,2013-01-02 12:42:00,
2013-01-02 07:53:00,39.0,36.0,30.01,NW,314,0.0,0.0,89,0.00,,,0.62,,2013-01-02 12:53:00,
2013-01-02 08:03:00,39.0,36.0,30.00,NW,314,0.0,0.0,89,0.00,,,0.60,,2013-01-02 13:03:00,
2013-01-02 08:12:00,39.0,36.0,30.00,NW,314,0.0,0.0,89,0.00,,,0.60,,2013-01-02 13:12:00,
2013-01-02 08:22:00,38.0,35.0,30.01,NW,314,0.0,0.0,89,0.00,,,0.59,,2013-01-02 13:22:00,
2013-01-02 08:33:00,38.0,35.0,30.01,NW,314,0.0,0.0,89,0.00,,,0.57,,2013-01-02 13:33:00,
2013-01-02 08:43:00,38.0,35.0,30.01,NW,314,0.0,0.0,89,0.00,,,0.57,,2013-01-02 13:43:00,
2013-01-02 08:52:00,38.0,35.0,30.01,NW,314,0.0,0.0,89,0.00,,,0.57,,2013-01-02 13:52:00,
2013-01-02 09:02:00,38.0,35.0,30.03,NW,314,0.0,0.0,89,0.00,,,0.56,,2013-01-02 14:02:00,
2013-01-02 09:12:00,38.0,35.0,30.03,NW,314,0.0,0.0,89,0.00,,,0.56,,2013-01-02 14:12:00,
2013-01-02 09:22:00,40.0,37.0,30.02,NW,314,0.0,0.0,89,0.00,,,0.55,,2013-01-02 14:22:00,
2013-01-02 09:33:00,42.0,38.0,30.02,NW,314,0.0,0.0,85,0.00,,,0.54,,2013-01-02 14:33:00,
2013-01-02 09:43:00,42.0,38.0,30.02,NW,314,0.0,0.0,85,0.00,,,0.54,,2013-01-02 14:43:00,
2013-01-02 09:53:00,42.0,38.0,30.03,NW,314,0.0,0.0,85,0.00,,,0.53,,2013-01-02 14:53:00,
2013-01-02 10:03:00,41.0,37.0,30.05,NW,314,0.0,0.0,86,0.00,,,0.51,,2013-01-02 15:03:00,
2013-01-02 10:12:00,41.0,37.0,30.05,NW,314,0.0,0.0,86,0.00,,,0.51,,2013-01-02 15:12:00,
2013-01-02 10:23:00,41.0,37.0,30.04,NW,314,0.0,0.0,86,0.00,,,0.50,,2013-01-02 15:23:00,
2013-01-02 10:33:00,41.0,37.0,30.05,South,173,0.0,1.0,87,0.00,,,0.50,,2013-01-02 15:33:00,
2013-01-02 10:43:00,41.0,37.0,30.05,South,173,0.0,1.0,87,0.00,,,0.50,,2013-01-02 15:43:00,
2013-01-02 10:53:00,40.0,36.0,30.05,SSE,160,0.0,0.0,87,0.00,,,0.50,,2013-01-02 15:53:00,
2013-01-02 11:03:00,40.0,36.0,30.06,SE,142,0.0,0.0,87,0.00,,,0.49,,2013-01-02 16:03:00,
2013-01-02 11:13:00,40.0,36.0,30.06,SE,142,0.0,0.0,87,0.00,,,0.49,,2013-01-02 16:13:00,
2013-01-02 11:22:00,41.0,37.0,30.06,SE,142,0.0,1.0,87,0.00,,,0.49,,2013-01-02 16:22:00,
2013-01-02 11:33:00,41.0,37.0,30.05,SE,142,0.0,0.0,86,0.00,,,0.47,,2013-01-02 16:33:00,
2013-01-02 11:43:00,41.0,37.0,30.05,SE,142,0.0,0.0,86,0.00,,,0.47,,2013-01-02 16:43:00,
2013-01-02 11:53:00,41.0,37.0,30.06,SE,143,0.0,0.0,85,0.00,,,0.45,,2013-01-02 16:53:00,
2013-01-02 12:03:00,42.0,38.0,30.06,SE,132,0.0,1.0,86,0.00,,,0.42,,2013-01-02 17:03:00,
2013-01-02 12:13:00,42.0,38.0,30.06,SE,132,0.0,1.0,86,0.00,,,0.42,,2013-01-02 17:13:00,
2013-01-02 12:23:00,42.0,38.0,30.04,SE,142,0.0,1.0,84,0.00,,,0.41,,2013-01-02 17:23:00,
2013-01-02 12:33:00,42.0,38.0,30.04,SSE,152,0.0,0.0,85,0.00,,,0.38,,2013-01-02 17:33:00,
2013-01-02 12:43:00,42.0,38.0,30.04,SSE,152,0.0,0.0,85,0.00,,,0.38,,2013-01-02 17:43:00,
2013-01-02 12:53:00,42.0,38.0,30.04,SSE,152,0.0,1.0,85,0.00,,,0.37,,2013-01-02 17:53:00,
2013-01-02 13:03:00,42.0,38.0,30.03,SSE,152,0.0,0.0,84,0.00,,,0.36,,2013-01-02 18:03:00,
2013-01-02 13:13:00,42.0,38.0,30.03,SSE,152,0.0,0.0,84,0.00,,,0.36,,2013-01-02 18:13:00,
2013-01-02 13:23:00,42.0,38.0,30.03,SSE,152,0.0,0.0,84,0.00,,,0.36,,2013-01-02 18:23:00,
2013-01-02 13:33:00,43.0,38.0,30.03,SE,133,0.0,0.0,84,0.00,,,0.34,,2013-01-02 18:33:00,
2013-01-02 13:43:00,43.0,38.0,30.03,SE,133,0.0,0.0,84,0.00,,,0.34,,2013-01-02 18:43:00,
2013-01-02 13:53:00,42.0,37.0,30.02,South,175,0.0,1.0,83,0.00,,,0.34,,2013-01-02 18:53:00,
2013-01-02 14:03:00,42.0,38.0,30.01,South,175,0.0,0.0,84,0.00,,,0.32,,2013-01-02 19:03:00,
2013-01-02 14:13:00,42.0,38.0,30.01,South,175,0.0,0.0,84,0.00,,,0.32,,2013-01-02 19:13:00,
2013-01-02 14:23:00,42.0,38.0,30.02,ESE,121,0.0,2.0,84,0.00,,,0.32,,2013-01-02 19:23:00,
2013-01-02 14:33:00,42.0,38.0,30.01,ESE,121,0.0,0.0,84,0.00,,,0.31,,2013-01-02 19:33:00,
2013-01-02 14:43:00,42.0,38.0,30.01,ESE,121,0.0,0.0,84,0.00,,,0.31,,2013-01-02 19:43:00,
2013-01-02 14:52:00,42.0,38.0,30.02,SSE,168,0.0,0.0,84,0.00,,,0.30,,2013-01-02 19:52:00,
2013-01-02 15:03:00,42.0,38.0,30.01,SSE,168,0.0,0.0,84,0.00,,,0.29,,2013-01-02 20:03:00,
2013-01-02 15:12:00,42.0,38.0,30.01,SSE,168,0.0,0.0,84,0.00,,,0.29,,2013-01-02 20:12:00,
2013-01-02 15:23:00,42.0,38.0,30.02,SSE,168,0.0,0.0,84,0.00,,,0.29,,2013-01-02 20:23:00,
2013-01-02 15:33:00,42.0,38.0,30.03,SSE,168,0.0,0.0,84,0.00,,,0.28,,2013-01-02 20:33:00,
2013-01-02 15:42:00,42.0,38.0,30.03,SSE,168,0.0,0.0,84,0.00,,,0.28,,2013-01-02 20:42:00,
2013-01-02 15:53:00,42.0,38.0,30.03,SSE,168,0.0,0.0,84,0.00,,,0.28,,2013-01-02 20:53:00,
2013-01-02 16:03:00,42.0,38.0,30.02,SSE,168,0.0,0.0,85,0.00,,,0.27,,2013-01-02 21:03:00,
2013-01-02 16:13:00,42.0,38.0,30.02,SSE,168,0.0,0.0,85,0.00,,,0.27,,2013-01-02 21:13:00,
2013-01-02 16:22:00,42.0,38.0,30.03,SSE,168,0.0,0.0,85,0.00,,,0.25,,2013-01-02 21:22:00,
2013-01-02 16:33:00,41.0,37.0,30.02,SSE,168,0.0,0.0,84,0.00,,,0.23,,2013-01-02 21:33:00,
2013-01-02 16:43:00,41.0,37.0,30.02,SSE,168,0.0,0.0,84,0.00,,,0.23,,2013-01-02 21:43:00,
2013-01-02 16:52:00,41.0,37.0,30.02,SSE,168,0.0,0.0,85,0.00,,,0.22,,2013-01-02 21:52:00,
2013-01-02 17:03:00,41.0,37.0,30.04,SSE,168,0.0,0.0,86,0.00,,,0.20,,2013-01-02 22:03:00,
2013-01-02 17:12:00,41.0,37.0,30.04,SSE,168,0.0,0.0,86,0.00,,,0.20,,2013-01-02 22:12:00,
2013-01-02 17:22:00,41.0,37.0,30.04,SSE,168,0.0,0.0,86,0.00,,,0.19,,2013-01-02 22:22:00,
2013-01-02 17:32:00,40.0,36.0,30.05,SSE,168,0.0,0.0,86,0.00,,,0.19,,2013-01-02 22:32:00,
2013-01-02 17:42:00,40.0,36.0,30.05,SSE,168,0.0,0.0,86,0.00,,,0.19,,2013-01-02 22:42:00,
2013-01-02 17:52:00,40.0,36.0,30.05,SSE,168,0.0,0.0,86,0.00,,,0.18,,2013-01-02 22:52:00,
2013-01-02 18:03:00,40.0,36.0,30.05,SSE,168,0.0,0.0,87,0.00,,,0.18,,2013-01-02 23:03:00,
2013-01-02 18:13:00,40.0,36.0,30.05,SSE,168,0.0,0.0,87,0.00,,,0.17,,2013-01-02 23:13:00,
2013-01-02 18:23:00,40.0,36.0,30.05,SSE,168,0.0,0.0,87,0.00,,,0.17,,2013-01-02 23:23:00,
2013-01-02 18:33:00,39.0,35.0,30.08,SSE,168,0.0,0.0,87,0.00,,,0.16,,2013-01-02 23:33:00,
2013-01-02 18:42:00,39.0,35.0,30.08,SSE,168,0.0,0.0,87,0.00,,,0.16,,2013-01-02 23:42:00,
2013-01-02 18:52:00,39.0,35.0,30.07,SSE,168,0.0,0.0,87,0.00,,,0.15,,2013-01-02 23:52:00,
2013-01-02 19:02:00,39.0,36.0,30.06,SSE,168,0.0,0.0,88,0.00,,,0.13,,2013-01-03 00:02:00,
2013-01-02 19:12:00,39.0,36.0,30.06,SSE,168,0.0,0.0,88,0.00,,,0.13,,2013-01-03 00:12:00,
2013-01-02 19:22:00,39.0,36.0,30.08,SSE,168,0.0,0.0,88,0.00,,,0.13,,2013-01-03 00:22:00,
2013-01-02 19:38:00,38.0,35.0,30.08,SSE,168,0.0,0.0,88,0.00,,,0.12,,2013-01-03 00:38:00,
2013-01-02 19:52:00,38.0,35.0,30.09,SSE,168,0.0,0.0,88,0.00,,,0.12,,2013-01-03 00:52:00,
2013-01-02 20:02:00,38.0,35.0,30.09,SSE,168,0.0,0.0,89,0.00,,,0.12,,2013-01-03 01:02:00,
2013-01-02 20:12:00,38.0,35.0,30.09,SSE,168,0.0,0.0,89,0.00,,,0.12,,2013-01-03 01:12:00,
2013-01-02 20:22:00,38.0,35.0,30.09,SSE,168,0.0,0.0,89,0.00,,,0.11,,2013-01-03 01:22:00,
2013-01-02 20:32:00,38.0,35.0,30.09,SSE,168,0.0,0.0,89,0.00,,,0.09,,2013-01-03 01:32:00,
2013-01-02 20:43:00,38.0,35.0,30.09,SSE,168,0.0,0.0,89,0.00,,,0.09,,2013-01-03 01:43:00,
2013-01-02 20:52:00,38.0,35.0,30.10,SSE,168,0.0,0.0,89,0.00,,,0.09,,2013-01-03 01:52:00,
2013-01-02 21:02:00,37.0,34.0,30.09,SSE,168,0.0,0.0,90,0.00,,,0.07,,2013-01-03 02:02:00,
2013-01-02 21:12:00,37.0,34.0,30.09,SSE,168,0.0,0.0,90,0.00,,,0.07,,2013-01-03 02:12:00,
2013-01-02 21:22:00,37.0,34.0,30.11,SSE,168,0.0,0.0,90,0.00,,,0.06,,2013-01-03 02:22:00,
2013-01-02 21:33:00,37.0,34.0,30.11,SSE,168,0.0,0.0,90,0.00,,,0.04,,2013-01-03 02:33:00,
2013-01-02 21:42:00,37.0,34.0,30.11,SSE,168,0.0,0.0,90,0.00,,,0.04,,2013-01-03 02:42:00,
2013-01-02 21:52:00,37.0,34.0,30.11,SSE,168,0.0,0.0,90,0.00,,,0.04,,2013-01-03 02:52:00,
2013-01-02 22:02:00,37.0,34.0,30.11,SSE,168,0.0,0.0,90,0.00,,,0.03,,2013-01-03 03:02:00,
2013-01-02 22:12:00,37.0,34.0,30.11,SSE,168,0.0,0.0,90,0.00,,,0.03,,2013-01-03 03:12:00,
2013-01-02 22:22:00,37.0,34.0,30.11,SSE,168,0.0,0.0,90,0.00,,,0.03,,2013-01-03 03:22:00,
2013-01-02 22:46:00,37.0,35.0,30.10,SSE,168,0.0,0.0,91,0.00,,,0.02,,2013-01-03 03:46:00,
2013-01-02 22:53:00,37.0,35.0,30.11,SSE,168,0.0,0.0,91,0.00,,,0.02,,2013-01-03 03:53:00,
2013-01-02 23:02:00,37.0,35.0,30.10,SSE,168,0.0,0.0,91,0.00,,,0.02,,2013-01-03 04:02:00,
2013-01-02 23:12:00,37.0,35.0,30.10,SSE,168,0.0,0.0,91,0.00,,,0.02,,2013-01-03 04:12:00,
2013-01-02 23:22:00,37.0,35.0,30.10,SSE,168,0.0,0.0,91,0.00,,,0.02,,2013-01-03 04:22:00,
2013-01-02 23:32:00,37.0,35.0,30.09,SSE,168,0.0,0.0,91,0.00,,,0.02,,2013-01-03 04:32:00,
2013-01-02 23:42:00,37.0,35.0,30.09,SSE,168,0.0,0.0,91,0.00,,,0.02,,2013-01-03 04:42:00,
2013-01-02 23:52:00,37.0,35.0,30.09,SSE,168,0.0,0.0,91,0.00,,,0.02,,2013-01-03 04:52:00,